Location: T. Spence Memorial Observatory
(32.7356°N, 82.2098°W)
Time: 13:27:15
(UTC-04:00)

Cosmos 2219 - Visible Passes

Search period start: 19 April 2014 00:00
Search period end: 29 April 2014 00:00
Orbit: 833 x 861 km, 71.1° (Epoch: 19 April)

Date Brightness Start Highest point End Pass type
(mag) Time Alt. Az. Time Alt. Az. Time Alt. Az.
19 Apr 3.8 04:19:02 10° N 04:24:41 56° ENE 04:30:17 10° SE visible
19 Apr 4.7 06:04:59 10° WNW 06:08:16 16° W 06:11:32 10° SW visible
20 Apr 3.8 04:05:43 10° N 04:11:20 55° ENE 04:13:19 37° ESE visible
20 Apr 4.6 05:51:34 10° WNW 05:54:56 16° W 05:55:01 16° W visible
21 Apr 3.8 03:52:23 10° N 03:57:55 53° ENE 03:57:55 53° ENE visible
21 Apr 4.9 05:38:09 10° WNW 05:39:43 14° WNW 05:39:43 14° WNW visible
22 Apr 4.2 03:39:04 10° N 03:43:23 44° NNE 03:43:23 44° NNE visible
22 Apr 5.2 05:24:44 10° WNW 05:25:13 12° WNW 05:25:13 12° WNW visible
23 Apr 4.6 03:25:44 10° N 03:29:16 35° NNE 03:29:16 35° NNE visible
24 Apr 4.9 03:12:25 10° N 03:15:23 29° N 03:15:23 29° N visible
25 Apr 5.1 02:59:05 10° N 03:01:39 26° N 03:01:39 26° N visible
26 Apr 5.2 02:45:46 10° N 02:48:03 24° N 02:48:03 24° N visible
27 Apr 5.3 02:32:26 10° N 02:34:31 22° N 02:34:31 22° N visible
28 Apr 5.4 02:19:07 10° N 02:21:04 21° N 02:21:04 21° N visible
